Weather History for 03969 - September, 2012

Change the Weather History Date:

Sunday, September 30, 2012

  Actual Average Record
Temperature  
Mean Temperature 56 °F -  
Max Temperature 60 °F 57 °F - ()
Min Temperature 51 °F 46 °F - ()
Degree Days  
Heating Degree Days 10    
Growing Degree Days 6 (Base 50)    
Moisture  
Dew Point 51 °F    
Average Humidity 81    
Maximum Humidity 94    
Minimum Humidity 66    
Precipitation  
Precipitation 0.03 in 0.09 in - ()
Sea Level Pressure  
Sea Level Pressure 29.81 in    
Wind  
Wind Speed 16 mph ()    
Max Wind Speed 23 mph    
Max Gust Speed 34 mph    
Visibility 6.6 miles    
Events Rain    
T = Trace of Precipitation, MM = Missing Value Source: Averaged Metar Reports

Daily Weather History Graph

Daily Weather History Graph

Search for Another Location

Airport or City:

Trip Planner

Search our weather history database for the weather conditions in past years. The results will help you decide how hot, cold, wet, or windy it might be!

Date:

Astronomy

Sep. 30, 2012 Rise Set
Actual Time 7:25 AM IST 7:03 PM IST
Civil Twilight 6:50 AM IST 7:38 PM IST
Nautical Twilight 6:10 AM IST 8:18 PM IST
Astronomical Twilight 5:28 AM IST 9:00 PM IST
Moon 6:46 PM IST (9/30) 7:52 AM IST (9/30)
Length of Visible Light 12h 47m
Length of Day
11h 37m
Full, 100% of the Moon is Illuminated
Sep 30
Full
Oct 8
Last Quarter
Oct 15
New
Oct 22
First Quarter
Oct 29
Full

Hourly Weather History & Observations

Time (IST) Temp. Dew Point Humidity Pressure Visibility Wind Dir Wind Speed Gust Speed Precip Events Conditions
12:00 AM 53.6 °F 46.4 °F 77% 29.95 in 6.2 mi SSW 18.4 mph - N/A   Mostly Cloudy
12:30 AM 55.4 °F 46.4 °F 72% 29.95 in 6.2 mi SW 18.4 mph 33.4 mph N/A   Mostly Cloudy
1:00 AM 54 °F 48 °F 73% 29.93 in 12 mi SW 22.4 mph - - Rain Light Rain
1:00 AM 53.6 °F 48.2 °F 82% 29.92 in 6.2 mi SW 20.7 mph - N/A Rain Light Rain
1:30 AM 53.6 °F 48.2 °F 82% 29.92 in 6.2 mi SW 20.7 mph 33.4 mph N/A Rain Light Rain
2:00 AM 53.6 °F 50.0 °F 88% 29.89 in 6.2 mi SW 21.9 mph - N/A Rain Light Rain
2:30 AM 53.6 °F 50.0 °F 88% 29.89 in 6.2 mi SW 19.6 mph - N/A Rain Light Rain
3:00 AM 53.6 °F 50.0 °F 88% 29.89 in 6.2 mi SW 18.4 mph - N/A   Mostly Cloudy
3:30 AM 55.4 °F 50.0 °F 82% 29.86 in 6.2 mi SW 17.3 mph - N/A   Mostly Cloudy
4:00 AM 55.4 °F 51.8 °F 88% 29.86 in 6.2 mi SW 17.3 mph - N/A   Mostly Cloudy
4:30 AM 55.4 °F 51.8 °F 88% 29.86 in 6.2 mi SW 18.4 mph - N/A   Mostly Cloudy
5:00 AM 55.4 °F 51.8 °F 88% 29.83 in 6.2 mi SW 20.7 mph - N/A   Mostly Cloudy
5:30 AM 55.4 °F 51.8 °F 88% 29.83 in 6.2 mi SW 20.7 mph 32.2 mph N/A   Mostly Cloudy
6:00 AM 57.2 °F 53.6 °F 88% 29.83 in 6.2 mi SW 20.7 mph - N/A   Mostly Cloudy
6:30 AM 57.2 °F 53.6 °F 88% 29.80 in 6.2 mi SW 19.6 mph - N/A   Mostly Cloudy
7:00 AM 57 °F 54 °F 85% 29.82 in 19 mi SW 17.9 mph - -   Partly Cloudy
7:00 AM 57.2 °F 53.6 °F 88% 29.80 in 6.2 mi SW 18.4 mph - N/A   Mostly Cloudy
7:30 AM 57.2 °F 53.6 °F 88% 29.80 in 6.2 mi SW 18.4 mph - N/A   Mostly Cloudy
8:00 AM 57.2 °F 53.6 °F 88% 29.77 in 6.2 mi SW 17.3 mph - N/A   Mostly Cloudy
8:30 AM 57.2 °F 53.6 °F 88% 29.77 in 6.2 mi SW 19.6 mph 32.2 mph N/A   Mostly Cloudy
9:00 AM 59.0 °F 53.6 °F 82% 29.77 in 6.2 mi SW 16.1 mph 27.6 mph N/A   Mostly Cloudy
9:30 AM 59.0 °F 55.4 °F 88% 29.77 in 5.6 mi SW 19.6 mph - N/A   Light Drizzle
10:00 AM 59.0 °F 55.4 °F 88% 29.77 in 6.2 mi SW 17.3 mph 28.8 mph N/A   Light Drizzle
10:30 AM 59.0 °F 55.4 °F 88% 29.77 in 6.2 mi SW 19.6 mph - N/A   Mostly Cloudy
11:00 AM 60.8 °F 55.4 °F 82% 29.77 in 6.2 mi SW 23.0 mph 34.5 mph N/A   Light Drizzle
11:30 AM 59.0 °F 57.2 °F 94% 29.77 in 6.2 mi SW 20.7 mph - N/A   Light Drizzle
12:00 PM 55.4 °F 53.6 °F 94% 29.77 in 6.2 mi West 16.1 mph - N/A   Mostly Cloudy
12:30 PM 57.2 °F 51.8 °F 82% 29.80 in 6.2 mi West 16.1 mph - N/A   Mostly Cloudy
1:00 PM 56 °F 52 °F 83% 29.81 in 9 mi WSW 15.7 mph - - Rain Light Drizzle
1:00 PM 57.2 °F 51.8 °F 82% 29.80 in 6.2 mi WSW 13.8 mph - N/A   Light Drizzle
1:30 PM 57.2 °F 51.8 °F 82% 29.80 in 6.2 mi WSW 12.7 mph - N/A   Mostly Cloudy
2:00 PM 59.0 °F 51.8 °F 77% 29.77 in 6.2 mi WSW 13.8 mph - N/A   Mostly Cloudy
2:30 PM 59.0 °F 51.8 °F 77% 29.77 in 6.2 mi WSW 21.9 mph - N/A   Mostly Cloudy
3:00 PM 59.0 °F 50.0 °F 72% 29.77 in 6.2 mi WSW 17.3 mph - N/A   Mostly Cloudy
3:30 PM 59.0 °F 50.0 °F 72% 29.77 in 6.2 mi WSW 16.1 mph - N/A   Mostly Cloudy
4:00 PM 59.0 °F 50.0 °F 72% 29.77 in 6.2 mi WSW 18.4 mph - N/A   Mostly Cloudy
4:30 PM 60.8 °F 50.0 °F 68% 29.77 in 6.2 mi WSW 18.4 mph - N/A   Partly Cloudy
5:00 PM 59.0 °F 48.2 °F 67% 29.77 in 6.2 mi WSW 18.4 mph - N/A   Scattered Clouds
5:30 PM 59.0 °F 50.0 °F 72% 29.77 in 6.2 mi West 17.3 mph - N/A   Scattered Clouds
6:00 PM 59.0 °F 50.0 °F 72% 29.77 in 6.2 mi WSW 15.0 mph - N/A   Scattered Clouds
6:30 PM 57.2 °F 48.2 °F 72% 29.77 in 6.2 mi WSW 15.0 mph - N/A   Partly Cloudy
7:00 PM 56 °F 48 °F 66% 29.78 in 22 mi WSW 11.2 mph - -   Partly Cloudy
7:00 PM 55.4 °F 48.2 °F 77% 29.77 in 6.2 mi WSW 10.4 mph - N/A   Partly Cloudy
7:30 PM 55.4 °F 48.2 °F 77% 29.77 in 6.2 mi SW 10.4 mph - N/A   Partly Cloudy
8:00 PM 53.6 °F 48.2 °F 82% 29.77 in 6.2 mi SSW 8.1 mph - N/A   Mostly Cloudy
8:30 PM 53.6 °F 48.2 °F 82% 29.77 in 6.2 mi South 8.1 mph - N/A   Mostly Cloudy
9:00 PM 55.4 °F 48.2 °F 77% 29.77 in 6.2 mi SW 9.2 mph - N/A   Mostly Cloudy
9:30 PM 55.4 °F 46.4 °F 72% 29.77 in 6.2 mi SW 12.7 mph - N/A   Mostly Cloudy
10:00 PM 53.6 °F 46.4 °F 77% 29.77 in 6.2 mi SW 11.5 mph - N/A   Mostly Cloudy
10:30 PM 51.8 °F 46.4 °F 82% 29.77 in 6.2 mi SSW 10.4 mph - N/A   Mostly Cloudy
11:00 PM 51.8 °F 46.4 °F 82% 29.77 in 6.2 mi SW 10.4 mph - N/A   Scattered Clouds
11:30 PM 51.8 °F 46.4 °F 82% 29.77 in 6.2 mi SW 10.4 mph - N/A   Scattered Clouds